FW0217 Weather Reports


Display with metric or nautical units.
time (UTC)temp
F
wind
direction
speed
MPH
gust
MPH
rain 1hr
in
rain 24hr
in
rain mn
in
humidity
%
barometer
mb
20260504175051 68 191 8.0 25.0 0.00 0.00 0.00 35 1008.3
20260504174556 69 249 7.0 15.0 0.00 0.00 0.00 35 1008.3
20260504174051 68 258 6.0 23.0 0.00 0.00 0.00 39 1008.2
20260504173551 67 290 10.0 23.0 0.00 0.00 0.00 39 1008.3
20260504173057 67 201 9.0 22.0 0.00 0.00 0.00 35 1008.2
20260504172550 67 270 10.0 22.0 0.00 0.00 0.00 36 1008.8
20260504172050 67 220 8.0 22.0 0.00 0.00 0.00 38 1008.3
20260504171608 67 247 12.0 22.0 0.00 0.00 0.00 37 1008.3
20260504171051 67 224 10.0 19.0 0.00 0.00 0.00 33 1008.5
20260504170550 67 238 10.0 23.0 0.00 0.00 0.00 39 1008.5
20260504160104 65 180 6.0 23.0 0.00 0.00 0.00 42 1009.5
20260504151050 62 276 9.0 21.0 0.00 0.00 0.00 45 1009.6
20260504150550 61 244 9.0 21.0 0.00 0.00 0.00 45 1009.6
20260504141050 60 259 6.0 19.0 0.00 0.00 0.00 44 1009.7
20260504140552 60 235 8.0 19.0 0.00 0.00 0.00 46 1009.8
20260504140113 59 245 5.0 22.0 0.00 0.00 0.00 48 1009.9
20260504130551 54 189 6.0 18.0 0.00 0.00 0.00 52 1010.2
20260504120110 47 237 6.0 16.0 0.00 0.00 0.00 62 1010.7
20260504110550 45 158 4.0 9.0 0.00 0.00 0.00 66 1010.4
20260504110106 45 219 3.0 9.0 0.00 0.00 0.00 65 1010.4
20260504100550 44 191 1.0 4.0 0.00 0.00 0.00 67 1010.5
20260504081551 45 251 3.0 10.0 0.00 0.00 0.00 62 1010.4
20260504081050 45 253 4.0 11.0 0.00 0.00 0.00 62 1010.4
20260504080552 45 235 6.0 12.0 0.00 0.00 0.00 62 1010.4
20260504060105 44 194 5.0 11.0 0.00 0.00 0.00 58 1010.5
20260504050551 43 246 4.0 9.0 0.00 0.00 0.00 58 1010.3
20260504045549 42 212 3.0 9.0 0.00 0.00 0.00 61 1010.4
20260504045052 42 228 4.0 12.0 0.00 0.00 0.00 61 1010.4
20260504044557 41 224 4.0 12.0 0.00 0.00 0.00 61 1010.6
20260504044050 41 237 3.0 9.0 0.00 0.00 0.00 63 1010.6
20260504043550 41 217 3.0 6.0 0.00 0.00 0.00 63 1010.6
20260504043110 40 217 2.0 7.0 0.00 0.00 0.00 64 1010.5
20260504042550 40 217 2.0 7.0 0.00 0.00 0.00 64 1010.5
20260504042050 40 224 3.0 6.0 0.00 0.00 0.00 65 1010.6
20260504041553 39 234 1.0 5.0 0.00 0.00 0.00 66 1010.4
20260504041050 39 197 1.0 4.0 0.00 0.00 0.00 68 1010.4
20260504040553 38 207 1.0 4.0 0.00 0.00 0.00 68 1010.4
20260504040054 39 0 0.0 3.0 0.00 0.00 0.00 69 1010.4
20260504035550 39 216 1.0 4.0 0.00 0.00 0.00 67 1010.4
20260504035050 39 212 2.0 6.0 0.00 0.00 0.00 67 1010.3
20260504034550 40 204 1.0 7.0 0.00 0.00 0.00 67 1010.2
20260504034052 40 260 3.0 7.0 0.00 0.00 0.00 63 1010.2
20260504033550 40 258 3.0 7.0 0.00 0.00 0.00 63 1010.2
20260504033104 39 228 1.0 8.0 0.00 0.00 0.00 66 1010.2
20260504032551 38 271 1.0 8.0 0.00 0.00 0.00 70 1010.2
20260504032052 37 245 0.0 3.0 0.00 0.00 0.00 74 1010.2
20260504031601 37 189 0.0 3.0 0.00 0.00 0.00 76 1010.2
20260504031052 36 0 0.0 3.0 0.00 0.00 0.00 79 1010.1
20260504030552 35 143 1.0 3.0 0.00 0.00 0.00 81 1010.1
20260504030055 35 0 0.0 2.0 0.00 0.00 0.00 80 1010.1
20260504025551 35 0 0.0 1.0 0.00 0.00 0.00 79 1010.2
20260504025050 35 0 0.0 1.0 0.00 0.00 0.00 79 1010.1
20260504024601 35 0 0.0 0.0 0.00 0.00 0.00 80 1010.1
20260504024052 35 0 0.0 0.0 0.00 0.00 0.00 80 1010.1
20260504023554 35 0 0.0 0.0 0.00 0.00 0.00 79 1010.1
20260504023056 35 0 0.0 0.0 0.00 0.00 0.00 78 1010.1
20260504022552 36 0 0.0 0.0 0.00 0.00 0.00 78 1010.2
20260504022051 36 0 0.0 0.0 0.00 0.00 0.00 78 1010.1
20260504021557 36 0 0.0 0.0 0.00 0.00 0.00 77 1010.2
20260504021052 37 0 0.0 0.0 0.00 0.00 0.00 75 1010.2
20260504020550 37 0 0.0 0.0 0.00 0.00 0.00 74 1010.2
20260504020052 37 0 0.0 0.0 0.00 0.00 0.00 73 1010.1
20260504015551 37 0 0.0 0.0 0.00 0.00 0.00 73 1010.1
20260504015051 38 0 0.0 0.0 0.00 0.00 0.00 74 1010.0
20260504014552 38 0 0.0 0.0 0.00 0.00 0.00 74 1009.9
20260504014050 38 0 0.0 2.0 0.00 0.00 0.00 71 1009.9
20260504013550 39 0 0.0 2.0 0.00 0.00 0.00 69 1009.9
20260504013106 39 109 0.0 2.0 0.00 0.00 0.00 69 1009.8
20260504012551 39 0 0.0 2.0 0.00 0.00 0.00 69 1009.8
20260504012053 40 0 0.0 1.0 0.00 0.00 0.00 64 1009.8
20260504011555 41 0 0.0 2.0 0.00 0.00 0.00 65 1009.7
20260504011052 41 0 0.0 2.0 0.00 0.00 0.00 62 1009.7
20260504010550 42 0 0.0 2.0 0.00 0.00 0.00 60 1009.6
20260504005551 43 0 0.0 3.0 0.00 0.00 0.00 57 1009.4
20260504005051 43 0 1.0 4.0 0.00 0.00 0.00 55 1009.3
20260504004622 44 0 1.0 7.0 0.00 0.00 0.00 53 1009.2
20260504004050 44 248 0.0 7.0 0.00 0.00 0.00 55 1009.1
20260504003552 44 281 1.0 7.0 0.00 0.00 0.00 52 1009.2
20260504003102 45 285 1.0 3.0 0.00 0.00 0.00 52 1009.1
20260504002552 45 260 1.0 7.0 0.00 0.00 0.00 51 1009.1
20260504002054 45 283 3.0 7.0 0.00 0.00 0.00 51 1009.0
20260504001607 45 261 1.0 6.0 0.00 0.00 0.00 50 1009.0
20260504001055 45 270 1.0 6.0 0.00 0.00 0.00 51 1009.0
20260504000550 46 258 2.0 6.0 0.00 0.00 0.00 50 1008.8
20260504000055 46 0 1.0 8.0 0.00 0.00 0.00 49 1008.8
20260503235550 46 278 2.0 8.0 0.00 0.00 0.00 49 1008.8
20260503235053 46 229 2.0 8.0 0.00 0.00 0.00 50 1008.8
20260503234556 46 256 3.0 8.0 0.00 0.00 0.00 49 1008.7
20260503234051 47 289 2.0 8.0 0.00 0.00 0.00 48 1008.7
20260503233551 47 281 3.0 17.0 0.00 0.00 0.00 47 1008.7
20260503233055 47 274 6.0 17.0 0.00 0.00 0.00 47 1008.7
20260503232550 47 291 7.0 16.0 0.00 0.00 0.00 46 1008.6
20260503232050 47 294 6.0 16.0 0.00 0.00 0.00 46 1008.5
20260503231559 48 303 6.0 16.0 0.00 0.00 0.00 46 1008.5
20260503231055 48 281 5.0 17.0 0.00 0.00 0.00 46 1008.4
20260503230551 48 262 7.0 17.0 0.00 0.00 0.00 47 1008.3
20260503230054 49 337 7.0 17.0 0.00 0.00 0.00 46 1008.5
20260503225550 49 263 3.0 13.0 0.00 0.00 0.00 50 1008.3
20260503225050 48 283 4.0 13.0 0.00 0.00 0.00 48 1008.2
20260503224558 48 305 3.0 15.0 0.00 0.00 0.00 48 1008.2
20260503224050 48 280 4.0 15.0 0.00 0.00 0.00 48 1008.2
20260503223550 48 301 2.0 13.0 0.00 0.00 0.00 49 1008.1
20260503223057 48 358 5.0 13.0 0.00 0.00 0.00 47 1008.1
20260503222550 48 303 4.0 13.0 0.00 0.00 0.00 47 1008.2
20260503222053 48 297 5.0 13.0 0.00 0.00 0.00 46 1008.2
20260503221555 48 320 5.0 14.0 0.00 0.00 0.00 47 1008.0
20260503221052 48 321 4.0 17.0 0.00 0.00 0.00 49 1008.0
20260503220551 49 297 5.0 19.0 0.00 0.00 0.00 47 1008.0
20260503215549 49 351 5.0 14.0 0.00 0.00 0.00 45 1008.0
20260503215051 49 249 4.0 10.0 0.00 0.00 0.00 46 1008.0
20260503214557 50 313 3.0 15.0 0.00 0.00 0.00 45 1007.9
20260503214050 50 225 5.0 17.0 0.00 0.00 0.00 45 1007.9
20260503213550 51 308 7.0 20.0 0.00 0.00 0.00 44 1007.9
20260503213055 50 12 6.0 20.0 0.00 0.00 0.00 43 1007.8
20260503212550 50 329 10.0 19.0 0.00 0.00 0.00 43 1007.8
20260503212050 49 282 10.0 17.0 0.00 0.00 0.00 43 1007.7
20260503211603 49 312 5.0 28.0 0.00 0.00 0.00 45 1007.7
20260503211053 49 287 8.0 28.0 0.00 0.00 0.00 43 1007.7
20260503210550 50 303 8.0 19.0 0.00 0.00 0.00 43 1007.7
20260503210054 51 321 7.0 24.0 0.00 0.00 0.00 44 1007.4
20260503205550 51 285 8.0 24.0 0.00 0.00 0.00 45 1007.4
20260503205052 50 291 10.0 24.0 0.00 0.00 0.00 45 1007.4
20260503204555 50 214 6.0 20.0 0.00 0.00 0.00 43 1007.4
20260503204051 52 272 8.0 22.0 0.00 0.00 0.00 42 1007.2
20260503203550 52 340 7.0 22.0 0.00 0.00 0.00 44 1007.2
20260503203053 52 295 8.0 18.0 0.00 0.00 0.00 42 1007.1
20260503202551 51 322 7.0 18.0 0.00 0.00 0.00 44 1007.2
20260503202050 50 194 5.0 26.0 0.00 0.00 0.00 48 1007.0
20260503201556 49 200 9.0 26.0 0.00 0.00 0.00 44 1007.1
20260503201050 49 296 7.0 21.0 0.00 0.00 0.00 46 1007.1
20260503200551 50 345 6.0 21.0 0.00 0.00 0.00 45 1007.1
20260503200053 50 233 6.0 17.0 0.00 0.00 0.00 47 1007.0
20260503195550 49 341 7.0 24.0 0.00 0.01 0.00 49 1007.1
20260503195050 49 310 11.0 24.0 0.00 0.01 0.00 46 1007.1
20260503194553 49 263 8.0 27.0 0.00 0.01 0.00 49 1007.1
20260503194050 49 271 8.0 27.0 0.00 0.01 0.00 47 1007.1
20260503193550 49 312 8.0 17.0 0.00 0.01 0.00 47 1007.0
20260503193056 49 26 9.0 17.0 0.00 0.01 0.00 46 1007.1
20260503192549 50 35 8.0 18.0 0.00 0.01 0.00 48 1006.9
20260503192050 50 247 7.0 18.0 0.00 0.01 0.00 46 1007.0
20260503191554 49 233 7.0 22.0 0.00 0.01 0.00 47 1007.0
20260503191051 49 299 7.0 22.0 0.00 0.01 0.00 46 1007.1
20260503190551 50 296 9.0 22.0 0.00 0.01 0.00 47 1007.2
20260503190055 50 360 8.0 25.0 0.00 0.01 0.00 45 1007.1
20260503185551 51 268 9.0 25.0 0.00 0.03 0.00 47 1007.1
20260503185051 52 239 10.0 25.0 0.00 0.03 0.00 43 1007.0
20260503184606 51 298 10.0 25.0 0.00 0.03 0.00 49 1007.0
20260503184050 50 263 7.0 24.0 0.00 0.03 0.00 47 1007.0
20260503183549 50 318 9.0 24.0 0.00 0.03 0.00 45 1007.1
20260503183057 50 297 7.0 19.0 0.00 0.03 0.00 48 1007.2
20260503182549 49 318 8.0 23.0 0.00 0.03 0.00 48 1007.0
20260503182050 49 228 6.0 23.0 0.00 0.03 0.00 51 1007.0
20260503181602 50 304 9.0 18.0 0.00 0.03 0.00 47 1007.0
20260503181050 50 314 11.0 19.0 0.00 0.03 0.00 47 1007.1
20260503180550 50 138 9.0 19.0 0.00 0.03 0.00 48 1006.9
20260503180058 51 326 7.0 19.0 0.00 0.03 0.00 47 1007.1
20260503175551 50 231 6.0 21.0 0.00 0.27 0.00 51 1006.9